Regional Weather Roundup
Issued by NWS Little Rock, AR

Home | Current Version | Previous Version | Graphics & Text | Print | Product List | Glossary On
Versions: 1 2 3 4 5 6 7 8 9 10 11 12 13 14 15 16 17 18 19 20 21 22 23 24 25 26 27 28 29 30 31 32 33 34 35 36 37 38 39 40 41 42 43 44 45 46 47 48 49 50
000
ASUS44 KLZK 260105
RWRLZK

WEATHER ROUNDUP FOR ARKANSAS
NATIONAL WEATHER SERVICE LITTLE ROCK AR
800 PM CDT MON MAY 25 2015

NOTE: "FAIR" INDICATES FEW OR NO CLOUDS BELOW 12,000 FEET WITH NO
SIGNIFICANT WEATHER AND/OR OBSTRUCTIONS TO VISIBILITY.

ARZ001-003-010-029-260200-
NORTHWEST ARKANSAS

CITY           SKY/WX    TMP DP  RH WIND       PRES   REMARKS
FAYETTEVILLE   TSTM      66  62  87 SE23G39   29.89R FOG
FORT SMITH     TSTM      66  62  87 W13       29.87R
HARRISON       LGT RAIN  71  66  84 SE9       29.92S
BENTONVILLE    CLOUDY    70  64  83 SE8       29.89R
ROGERS         RAIN      70  67  90 SE8       29.91R
SILOAM SPGS    CLOUDY    66  59  77 NE7       29.88R THUNDER
HIGHFILL       TSTM      70  67  90 E8        29.87S
SPRINGDALE     RAIN      70  68  94 SE8       29.91R FOG
$$

ARZ004-005-016-260200-
NORTH CENTRAL ARKANSAS

CITY           SKY/WX    TMP DP  RH WIND       PRES   REMARKS
BATESVILLE     CLOUDY    75  68  78 E6        29.94F
FLIPPIN        CLOUDY    75  66  73 SE8       29.91S THUNDER
MTN HOME       CLOUDY    74  66  76 SE7       29.93R
$$

ARZ040-041-260200-
WEST CENTRAL ARKANSAS

CITY           SKY/WX    TMP DP  RH WIND       PRES   REMARKS
MENA           NOT AVBL
MOUNT IDA      LGT RAIN  63  60  90 CALM      29.89F
$$

ARZ009-017-025-026-028-260200-
NORTHEAST ARKANSAS

CITY           SKY/WX    TMP DP  RH WIND       PRES   REMARKS
CORNING        FAIR      75  70  83 SE7       29.98R
JONESBORO      PTCLDY    77  70  79 SE3       29.97S
NEWPORT        MOCLDY    77  71  81 SE7       29.97R
WALNUT RIDGE   PTCLDY    75  70  83 SE12      29.97R
BLYTHEVILLE    PTCLDY    77  71  82 SE8       30.00R
$$

ARZ022-023-033-042-044-260200-
CENTRAL ARKANSAS

CITY           SKY/WX    TMP DP  RH WIND       PRES   REMARKS
LITTLE ROCK    CLOUDY    74  67  78 E7        29.90F
N LITTLE ROCK  CLOUDY    71  69  95 E6        29.90F
SEARCY         CLOUDY    77  70  79 E5        29.94S
HOT SPRINGS    TSTM      63  61  93 W8G20     29.97R FOG
RUSSELLVILLE   TSTM      63  61  93 S8G25     29.92R VSB 1
CLINTON        FAIR      68  68 100 S6        29.93F FOG
$$

ARZ036-260200-
EAST ARKANSAS

CITY           SKY/WX    TMP DP  RH WIND       PRES   REMARKS
WEST MEMPHIS   MOCLDY    78  72  81 S13       29.98R
$$

ARZ050-053-066-070-073-260200-
SOUTHWEST ARKANSAS

CITY           SKY/WX    TMP DP  RH WIND       PRES   REMARKS
ARKADELPHIA    TSTM      64  64 100 NW18      29.92R
CAMDEN         CLOUDY    72  63  73 NE10G18   29.91F
TEXARKANA      TSTM      62  61  96 NE7       29.94S FOG
EL DORADO      CLOUDY    75  69  81 SE13G20   29.92F
$$

ARZ056-057-069-260200-
SOUTHEAST ARKANSAS

CITY           SKY/WX    TMP DP  RH WIND       PRES   REMARKS
PINE BLUFF     CLOUDY    80  70  71 SE12      29.93S
STUTTGART      MOCLDY    81  70  69 MISG      29.94F
MONTICELLO     CLOUDY    80  69  69 SE14G21   29.94S

$$





USA.gov is the U.S. government's official web portal to all federal, state and local government web resources and services.